Terug naar catalogus

STARLINK-31575

ActiefCommunicatieVLEO
NORAD 59471·PAYLOAD·🇺🇸 United States

Gelanceerd Apr 10, 2024 vanaf Cape Canaveral Space Force Station

Loading…

Volgende Passages (komende 24 uur)

TLE

VersSource: CelesTrak SupGP

Epoch: Sep 15, 2026, 03:11 UTC

1 59471C 24068S   26258.13312500 -.00015282  00000+0 -55344-3 0  2585
2 59471  43.0042  41.1305 0001502 262.7283 190.3537 15.27589763    15

Volg STARLINK-31575 in realtime met AllMySat

Download on the App Store